Lincoln, NE

8:14 AM CDT on May 30, 2017 (GMT -0500)
Lincoln Municipal

Weather History for KLNK - October, 2012

Change the Weather History Date:

Thursday, October 18, 2012

  Actual Average Record
Temperature  
Mean Temperature 49 °F 52 °F  
Max Temperature 52 °F 65 °F 87 °F (1945)
Min Temperature 46 °F 40 °F 21 °F (1972)
Degree Days  
Heating Degree Days 16 13  
Month to date heating degree days 242 179  
Since 1 July heating degree days 352 277  
Cooling Degree Days 0 0  
Month to date cooling degree days 0 12  
Year to date cooling degree days 1491 1170  
Moisture  
Dew Point 28 °F    
Average Humidity 53    
Maximum Humidity 76    
Minimum Humidity 30    
Precipitation  
Precipitation 0.02 in 0.06 in 1.27 in (1971)
Month to date precipitation 1.19 1.23  
Year to date precipitation 16.76 25.83  
Snow  
Snow 0.00 in 0.00 in - ()
Month to date snowfall 0.0 0.2  
Since 1 July snowfall 0.0 0.2  
Snow Depth 0.00 in    
Sea Level Pressure  
Sea Level Pressure 29.63 in    
Wind  
Wind Speed 27 mph (WNW)    
Max Wind Speed 44 mph    
Max Gust Speed 56 mph    
Visibility 9 miles    
Events Rain    
T = Trace of Precipitation, MM = Missing Value Source: NWS Daily Summary

Daily Weather History Graph

Daily Weather History Graph

Search for Another Location

Airport or City:

Trip Planner

Search our weather history database for the weather conditions in past years. The results will help you decide how hot, cold, wet, or windy it might be!

Date:

Astronomy

Oct. 18, 2012 Rise Set
Actual Time 7:42 AM CDT 6:41 PM CDT
Civil Twilight 7:14 AM CDT 7:09 PM CDT
Nautical Twilight 6:42 AM CDT 7:40 PM CDT
Astronomical Twilight 6:10 AM CDT 8:12 PM CDT
Moon 11:26 AM CDT (10/18) 9:15 PM CDT (10/18)
Length of Visible Light 11h 54m
Length of Day
10h 59m
Waxing Crescent, 14% of the Moon is Illuminated
Oct 18
Waxing Crescent
Oct 21
First Quarter
Oct 29
Full
Nov 6
Last Quarter
Nov 13
New

Hourly Weather History & Observations

Time (CDT) Temp. Windchill Dew Point Humidity Pressure Visibility Wind Dir Wind Speed Gust Speed Precip Events Conditions
12:54 AM 50.0 °F - 21.9 °F 33% 29.65 in 10.0 mi West 17.3 mph 24.2 mph N/A   Clear
1:54 AM 50.0 °F - 21.9 °F 33% 29.64 in 10.0 mi West 17.3 mph 25.3 mph N/A   Clear
2:54 AM 50.0 °F - 21.0 °F 32% 29.63 in 10.0 mi West 18.4 mph 29.9 mph N/A   Clear
3:54 AM 50.0 °F - 21.0 °F 32% 29.61 in 10.0 mi WNW 21.9 mph 32.2 mph N/A   Clear
4:54 AM 50.0 °F - 21.0 °F 32% 29.60 in 10.0 mi West 20.7 mph 32.2 mph N/A   Clear
5:54 AM 50.0 °F - 21.0 °F 32% 29.60 in 10.0 mi WNW 20.7 mph 29.9 mph N/A   Clear
6:54 AM 48.9 °F - 21.0 °F 33% 29.60 in 10.0 mi WNW 17.3 mph 26.5 mph N/A   Mostly Cloudy
7:54 AM 50.0 °F - 21.0 °F 32% 29.58 in 10.0 mi WNW 24.2 mph 32.2 mph N/A   Overcast
8:54 AM 51.1 °F - 21.9 °F 32% 29.59 in 9.0 mi NW 25.3 mph 46.0 mph N/A   Overcast
9:54 AM 51.1 °F - 23.0 °F 33% 29.60 in 9.0 mi NW 31.1 mph 41.4 mph N/A   Overcast
10:54 AM 51.1 °F - 25.0 °F 36% 29.61 in 10.0 mi NW 26.5 mph 42.6 mph N/A   Overcast
11:54 AM 51.1 °F - 26.1 °F 38% 29.60 in 9.0 mi WNW 31.1 mph 42.6 mph N/A   Overcast
12:54 PM 51.1 °F - 27.0 °F 39% 29.60 in 8.0 mi WNW 38.0 mph 48.3 mph N/A   Overcast
1:54 PM 51.1 °F - 28.9 °F 43% 29.59 in 7.0 mi WNW 28.8 mph 40.3 mph N/A   Overcast
2:54 PM 52.0 °F - 32.0 °F 47% 29.60 in 7.0 mi NW 27.6 mph 52.9 mph 0.00 in   Overcast
3:54 PM 52.0 °F - 33.1 °F 49% 29.60 in 8.0 mi NW 32.2 mph 47.2 mph 0.00 in   Overcast
4:54 PM 50.0 °F - 37.0 °F 61% 29.63 in 10.0 mi NW 31.1 mph 43.7 mph 0.00 in   Overcast
5:54 PM 50.0 °F - 34.0 °F 54% 29.65 in 9.0 mi NW 35.7 mph 46.0 mph N/A   Overcast
6:54 PM 50.0 °F - 35.1 °F 57% 29.68 in 10.0 mi NW 35.7 mph 46.0 mph N/A   Overcast
7:54 PM 48.9 °F - 36.0 °F 61% 29.70 in 10.0 mi NW 32.2 mph 49.5 mph N/A   Overcast
8:54 PM 48.9 °F - 37.0 °F 64% 29.71 in 10.0 mi NW 28.8 mph 40.3 mph 0.00 in Rain Light Rain
9:54 PM 48.2 °F - 37.4 °F 66% 29.69 in 10.0 mi NW 24.2 mph 39.1 mph N/A Rain Light Rain
10:54 PM 46.9 °F - 39.0 °F 74% 29.70 in 10.0 mi NW 21.9 mph 34.5 mph 0.00 in Rain Light Rain
11:54 PM 46.0 °F 38.3 °F 39.0 °F 76% 29.71 in 7.0 mi NW 20.7 mph 28.8 mph 0.00 in Rain Light Rain